Year,Month,Day,Hour,Minute,Value (Times are PST for temperature in C)
2009,08,24,00,00,13.00
2009,08,24,00,01,13.00
2009,08,24,00,02,13.00
2009,08,24,00,03,13.00
2009,08,24,00,04,13.00
2009,08,24,00,05,13.00
2009,08,24,00,06,13.00
2009,08,24,00,07,13.00
2009,08,24,00,08,13.00
2009,08,24,00,09,12.90
2009,08,24,00,10,12.90
2009,08,24,00,11,12.90
2009,08,24,00,12,12.90
2009,08,24,00,13,12.90
2009,08,24,00,14,12.90
2009,08,24,00,15,12.90
2009,08,24,00,16,12.90
2009,08,24,00,17,12.90
2009,08,24,00,18,12.90
2009,08,24,00,19,12.90
2009,08,24,00,20,12.80
2009,08,24,00,21,12.80
2009,08,24,00,22,12.80
2009,08,24,00,23,12.80
2009,08,24,00,24,12.80
2009,08,24,00,25,12.80
2009,08,24,00,26,12.80
2009,08,24,00,27,12.80
2009,08,24,00,28,12.80
2009,08,24,00,29,12.80
2009,08,24,00,30,12.80
2009,08,24,00,31,12.80
2009,08,24,00,32,12.80
2009,08,24,00,33,12.80
2009,08,24,00,34,12.80
2009,08,24,00,35,12.80
2009,08,24,00,36,12.80
2009,08,24,00,37,12.80
2009,08,24,00,38,12.80
2009,08,24,00,39,12.80
2009,08,24,00,40,12.80
2009,08,24,00,41,12.80
2009,08,24,00,42,12.80
2009,08,24,00,43,12.80
2009,08,24,00,44,12.70
2009,08,24,00,45,12.70
2009,08,24,00,46,12.70
2009,08,24,00,47,12.70
2009,08,24,00,48,12.70
2009,08,24,00,49,12.70
2009,08,24,00,50,12.70
2009,08,24,00,51,12.70
2009,08,24,00,52,12.70
2009,08,24,00,53,12.70
2009,08,24,00,54,12.70
2009,08,24,00,55,12.70
2009,08,24,00,56,12.70
2009,08,24,00,57,12.70
2009,08,24,00,58,12.70
2009,08,24,00,59,12.70
2009,08,24,01,00,12.70
2009,08,24,01,01,12.70
2009,08,24,01,02,12.70
2009,08,24,01,03,12.70
2009,08,24,01,04,12.70
2009,08,24,01,05,12.70
2009,08,24,01,06,12.70
2009,08,24,01,07,12.70
2009,08,24,01,08,12.70
2009,08,24,01,09,12.70
2009,08,24,01,10,12.60
2009,08,24,01,11,12.60
2009,08,24,01,12,12.60
2009,08,24,01,13,12.60
2009,08,24,01,14,12.60
2009,08,24,01,15,12.60
2009,08,24,01,16,12.50
2009,08,24,01,17,12.50
2009,08,24,01,18,12.50
2009,08,24,01,19,12.50
2009,08,24,01,20,12.40
2009,08,24,01,21,12.40
2009,08,24,01,22,12.40
2009,08,24,01,23,12.40
2009,08,24,01,24,12.30
2009,08,24,01,25,12.30
2009,08,24,01,26,12.30
2009,08,24,01,27,12.30
2009,08,24,01,28,12.30
2009,08,24,01,29,12.30
2009,08,24,01,30,12.30
2009,08,24,01,31,12.30
2009,08,24,01,32,12.20
2009,08,24,01,33,12.20
2009,08,24,01,34,12.20
2009,08,24,01,35,12.20
2009,08,24,01,36,12.20
2009,08,24,01,37,12.20
2009,08,24,01,38,12.20
2009,08,24,01,39,12.20
2009,08,24,01,40,12.20
2009,08,24,01,41,12.20
2009,08,24,01,42,12.20
2009,08,24,01,43,12.20
2009,08,24,01,44,12.20
2009,08,24,01,45,12.20
2009,08,24,01,46,12.20
2009,08,24,01,47,12.20
2009,08,24,01,48,12.10
2009,08,24,01,49,12.10
2009,08,24,01,50,12.10
2009,08,24,01,51,12.10
2009,08,24,01,52,12.10
2009,08,24,01,53,12.10
2009,08,24,01,54,12.10
2009,08,24,01,55,12.10
2009,08,24,01,56,12.10
2009,08,24,01,57,12.10
2009,08,24,01,58,12.10
2009,08,24,01,59,12.10
2009,08,24,02,00,12.10
2009,08,24,02,01,12.10
2009,08,24,02,02,12.10
2009,08,24,02,03,12.10
2009,08,24,02,04,12.00
2009,08,24,02,05,12.00
2009,08,24,02,06,12.00
2009,08,24,02,07,12.00
2009,08,24,02,08,12.00
2009,08,24,02,09,12.00
2009,08,24,02,10,12.00
2009,08,24,02,11,12.00
2009,08,24,02,12,12.00
2009,08,24,02,13,12.00
2009,08,24,02,14,12.00
2009,08,24,02,15,12.00
2009,08,24,02,16,12.00
2009,08,24,02,17,12.00
2009,08,24,02,18,12.00
2009,08,24,02,19,12.00
2009,08,24,02,20,12.00
2009,08,24,02,21,12.00
2009,08,24,02,22,12.00
2009,08,24,02,23,11.90
2009,08,24,02,24,11.90
2009,08,24,02,25,11.90
2009,08,24,02,26,11.90
2009,08,24,02,27,11.90
2009,08,24,02,28,11.90
2009,08,24,02,29,11.90
2009,08,24,02,30,11.90
2009,08,24,02,31,11.90
2009,08,24,02,32,11.90
2009,08,24,02,33,11.90
2009,08,24,02,34,11.90
2009,08,24,02,35,11.90
2009,08,24,02,36,11.80
2009,08,24,02,37,11.80
2009,08,24,02,38,11.80
2009,08,24,02,39,11.80
2009,08,24,02,40,11.80
2009,08,24,02,41,11.80
2009,08,24,02,42,11.80
2009,08,24,02,43,11.80
2009,08,24,02,44,11.80
2009,08,24,02,45,11.80
2009,08,24,02,46,11.80
2009,08,24,02,47,11.80
2009,08,24,02,48,11.80
2009,08,24,02,49,11.80
2009,08,24,02,50,11.80
2009,08,24,02,51,11.80
2009,08,24,02,52,11.80
2009,08,24,02,53,11.80
2009,08,24,02,54,11.80
2009,08,24,02,55,11.80
2009,08,24,02,56,11.80
2009,08,24,02,57,11.80
2009,08,24,02,58,11.80
2009,08,24,02,59,11.80
2009,08,24,03,00,11.70
2009,08,24,03,01,11.70
2009,08,24,03,02,11.70
2009,08,24,03,03,11.70
2009,08,24,03,04,11.70
2009,08,24,03,05,11.70
2009,08,24,03,06,11.70
2009,08,24,03,07,11.70
2009,08,24,03,08,11.60
2009,08,24,03,09,11.60
2009,08,24,03,10,11.60
2009,08,24,03,11,11.60
2009,08,24,03,12,11.60
2009,08,24,03,13,11.60
2009,08,24,03,14,11.60
2009,08,24,03,15,11.60
2009,08,24,03,16,11.60
2009,08,24,03,17,11.60
2009,08,24,03,18,11.60
2009,08,24,03,19,11.60
2009,08,24,03,20,11.60
2009,08,24,03,21,11.60
2009,08,24,03,22,11.60
2009,08,24,03,23,11.60
2009,08,24,03,24,11.60
2009,08,24,03,25,11.60
2009,08,24,03,26,11.60
2009,08,24,03,27,11.60
2009,08,24,03,28,11.60
2009,08,24,03,29,11.60
2009,08,24,03,30,11.60
2009,08,24,03,31,11.60
2009,08,24,03,32,11.60
2009,08,24,03,33,11.60
2009,08,24,03,34,11.60
2009,08,24,03,35,11.60
2009,08,24,03,36,11.60
2009,08,24,03,37,11.70
2009,08,24,03,38,11.70
2009,08,24,03,39,11.70
2009,08,24,03,40,11.70
2009,08,24,03,41,11.60
2009,08,24,03,42,11.60
2009,08,24,03,43,11.60
2009,08,24,03,44,11.60
2009,08,24,03,45,11.60
2009,08,24,03,46,11.60
2009,08,24,03,47,11.60
2009,08,24,03,48,11.60
2009,08,24,03,49,11.50
2009,08,24,03,50,11.50
2009,08,24,03,51,11.60
2009,08,24,03,52,11.60
2009,08,24,03,53,11.60
2009,08,24,03,54,11.60
2009,08,24,03,55,11.60
2009,08,24,03,56,11.60
2009,08,24,03,57,11.60
2009,08,24,03,58,11.60
2009,08,24,03,59,11.60
2009,08,24,04,00,11.60
2009,08,24,04,01,11.60
2009,08,24,04,02,11.60
2009,08,24,04,03,11.60
2009,08,24,04,04,11.60
2009,08,24,04,05,11.60
2009,08,24,04,06,11.60
2009,08,24,04,07,11.60
2009,08,24,04,08,11.60
2009,08,24,04,09,11.60
2009,08,24,04,10,11.60
2009,08,24,04,11,11.40
2009,08,24,04,12,11.40
2009,08,24,04,13,11.40
2009,08,24,04,14,11.40
2009,08,24,04,15,11.40
2009,08,24,04,16,11.40
2009,08,24,04,17,11.40
2009,08,24,04,18,11.40
2009,08,24,04,19,11.40
2009,08,24,04,20,11.30
2009,08,24,04,21,11.30
2009,08,24,04,22,11.30
2009,08,24,04,23,11.30
2009,08,24,04,24,11.30
2009,08,24,04,25,11.30
2009,08,24,04,26,11.30
2009,08,24,04,27,11.30
2009,08,24,04,28,11.20
2009,08,24,04,29,11.30
2009,08,24,04,30,11.30
2009,08,24,04,31,11.30
2009,08,24,04,32,11.40
2009,08,24,04,33,11.40
2009,08,24,04,34,11.30
2009,08,24,04,35,11.30
2009,08,24,04,36,11.30
2009,08,24,04,37,11.30
2009,08,24,04,38,11.30
2009,08,24,04,39,11.30
2009,08,24,04,40,11.30
2009,08,24,04,41,11.40
2009,08,24,04,42,11.30
2009,08,24,04,43,11.30
2009,08,24,04,44,11.30
2009,08,24,04,45,11.30
2009,08,24,04,46,11.30
2009,08,24,04,47,11.30
2009,08,24,04,48,11.30
2009,08,24,04,49,11.30
2009,08,24,04,50,11.30
2009,08,24,04,51,11.20
2009,08,24,04,52,11.20
2009,08,24,04,53,11.20
2009,08,24,04,54,11.20
2009,08,24,04,55,11.20
2009,08,24,04,56,11.20
2009,08,24,04,57,11.20
2009,08,24,04,58,11.10
2009,08,24,04,59,11.10
2009,08,24,05,00,11.10
2009,08,24,05,01,11.10
2009,08,24,05,02,11.10
2009,08,24,05,03,11.10
2009,08,24,05,04,11.10
2009,08,24,05,05,11.10
2009,08,24,05,06,11.10
2009,08,24,05,07,11.10
2009,08,24,05,08,11.00
2009,08,24,05,09,10.90
2009,08,24,05,10,10.90
2009,08,24,05,11,10.90
2009,08,24,05,12,10.80
2009,08,24,05,13,10.80
2009,08,24,05,14,10.80
2009,08,24,05,15,10.70
2009,08,24,05,16,10.70
2009,08,24,05,17,10.70
2009,08,24,05,18,10.60
2009,08,24,05,19,10.60
2009,08,24,05,20,10.60
2009,08,24,05,21,10.60
2009,08,24,05,22,10.60
2009,08,24,05,23,10.60
2009,08,24,05,24,10.60
2009,08,24,05,25,10.60
2009,08,24,05,26,10.60
2009,08,24,05,27,10.60
2009,08,24,05,28,10.60
2009,08,24,05,29,10.60
2009,08,24,05,30,10.60
2009,08,24,05,31,10.50
2009,08,24,05,32,10.40
2009,08,24,05,33,10.40
2009,08,24,05,34,10.40
2009,08,24,05,35,10.40
2009,08,24,05,36,10.40
2009,08,24,05,37,10.40
2009,08,24,05,38,10.40
2009,08,24,05,39,10.40
2009,08,24,05,40,10.40
2009,08,24,05,41,10.40
2009,08,24,05,42,10.40
2009,08,24,05,43,10.40
2009,08,24,05,44,10.40
2009,08,24,05,45,10.40
2009,08,24,05,46,10.40
2009,08,24,05,47,10.40
2009,08,24,05,48,10.40
2009,08,24,05,49,10.40
2009,08,24,05,50,10.40
2009,08,24,05,51,10.40
2009,08,24,05,52,10.40
2009,08,24,05,53,10.40
2009,08,24,05,54,10.40
2009,08,24,05,55,10.40
2009,08,24,05,56,10.40
2009,08,24,05,57,10.40
2009,08,24,05,58,10.30
2009,08,24,05,59,10.30
2009,08,24,06,00,10.30
2009,08,24,06,01,10.30
2009,08,24,06,02,10.20
2009,08,24,06,03,10.20
2009,08,24,06,04,10.20
2009,08,24,06,05,10.20
2009,08,24,06,06,10.20
2009,08,24,06,07,10.10
2009,08,24,06,08,10.10
2009,08,24,06,09,10.10
2009,08,24,06,10,10.10
2009,08,24,06,11,10.10
2009,08,24,06,12,10.10
2009,08,24,06,13,10.10
2009,08,24,06,14,10.10
2009,08,24,06,15,10.10
2009,08,24,06,16,10.10
2009,08,24,06,17,10.10
2009,08,24,06,18,10.10
2009,08,24,06,19,10.10
2009,08,24,06,20,10.10
2009,08,24,06,21,10.10
2009,08,24,06,22,10.10
2009,08,24,06,23,10.10
2009,08,24,06,24,10.20
2009,08,24,06,25,10.20
2009,08,24,06,26,10.30
2009,08,24,06,27,10.30
2009,08,24,06,28,10.30
2009,08,24,06,29,10.30
2009,08,24,06,30,10.30
2009,08,24,06,31,10.40
2009,08,24,06,32,10.40
2009,08,24,06,33,10.40
2009,08,24,06,34,10.40
2009,08,24,06,35,10.40
2009,08,24,06,36,10.40
2009,08,24,06,37,10.40
2009,08,24,06,38,10.40
2009,08,24,06,39,10.40
2009,08,24,06,40,10.40
2009,08,24,06,41,10.40
2009,08,24,06,42,10.40
2009,08,24,06,43,10.40
2009,08,24,06,44,10.40
2009,08,24,06,45,10.40
2009,08,24,06,46,10.40
2009,08,24,06,47,10.40
2009,08,24,06,48,10.40
2009,08,24,06,49,10.40
2009,08,24,06,50,10.40
2009,08,24,06,51,10.40
2009,08,24,06,52,10.40
2009,08,24,06,53,10.40
2009,08,24,06,54,10.40
2009,08,24,06,55,10.40
2009,08,24,06,56,10.40
2009,08,24,06,57,10.40
2009,08,24,06,58,10.40
2009,08,24,06,59,10.40
2009,08,24,07,00,10.40
2009,08,24,07,01,10.40
2009,08,24,07,02,10.40
2009,08,24,07,03,10.40
2009,08,24,07,04,10.40
2009,08,24,07,05,10.40
2009,08,24,07,06,10.40
2009,08,24,07,07,10.40
2009,08,24,07,08,10.40
2009,08,24,07,09,10.40
2009,08,24,07,10,10.40
2009,08,24,07,11,10.40
2009,08,24,07,12,10.40
2009,08,24,07,13,10.40
2009,08,24,07,14,10.60
2009,08,24,07,15,10.60
2009,08,24,07,16,10.60
2009,08,24,07,17,10.60
2009,08,24,07,18,10.60
2009,08,24,07,19,10.60
2009,08,24,07,20,10.60
2009,08,24,07,21,10.60
2009,08,24,07,22,10.60
2009,08,24,07,23,10.70
2009,08,24,07,24,10.70
2009,08,24,07,25,10.80
2009,08,24,07,26,10.90
2009,08,24,07,27,10.90
2009,08,24,07,28,11.00
2009,08,24,07,29,11.10
2009,08,24,07,30,11.10
2009,08,24,07,31,11.10
2009,08,24,07,32,11.20
2009,08,24,07,33,11.20
2009,08,24,07,34,11.30
2009,08,24,07,35,11.30
2009,08,24,07,36,11.40
2009,08,24,07,37,11.40
2009,08,24,07,38,11.40
2009,08,24,07,39,11.60
2009,08,24,07,40,11.60
2009,08,24,07,41,11.60
2009,08,24,07,42,11.70
2009,08,24,07,43,11.80
2009,08,24,07,44,11.80
2009,08,24,07,45,11.80
2009,08,24,07,46,11.90
2009,08,24,07,47,11.90
2009,08,24,07,48,12.00
2009,08,24,07,49,12.00
2009,08,24,07,50,12.00
2009,08,24,07,51,12.10
2009,08,24,07,52,12.10
2009,08,24,07,53,12.20
2009,08,24,07,54,12.30
2009,08,24,07,55,12.30
2009,08,24,07,56,12.30
2009,08,24,07,57,12.30
2009,08,24,07,58,12.30
2009,08,24,07,59,12.30
2009,08,24,08,00,12.40
2009,08,24,08,01,12.50
2009,08,24,08,02,12.60
2009,08,24,08,03,12.60
2009,08,24,08,04,12.70
2009,08,24,08,05,12.80
2009,08,24,08,06,12.80
2009,08,24,08,07,12.90
2009,08,24,08,08,12.90
2009,08,24,08,09,13.00
2009,08,24,08,10,13.10
2009,08,24,08,11,13.10
2009,08,24,08,12,13.20
2009,08,24,08,13,13.20
2009,08,24,08,14,13.30
2009,08,24,08,15,13.30
2009,08,24,08,16,13.30
2009,08,24,08,17,13.40
2009,08,24,08,18,13.50
2009,08,24,08,19,13.50
2009,08,24,08,20,13.60
2009,08,24,08,21,13.60
2009,08,24,08,22,13.60
2009,08,24,08,23,13.70
2009,08,24,08,24,13.70
2009,08,24,08,25,13.70
2009,08,24,08,26,13.70
2009,08,24,08,27,13.70
2009,08,24,08,28,13.70
2009,08,24,08,29,13.70
2009,08,24,08,30,13.70
2009,08,24,08,31,13.80
2009,08,24,08,32,13.90
2009,08,24,08,33,13.90
2009,08,24,08,34,14.00
2009,08,24,08,35,14.00
2009,08,24,08,36,14.10
2009,08,24,08,37,14.10
2009,08,24,08,38,14.00
2009,08,24,08,39,13.90
2009,08,24,08,40,13.90
2009,08,24,08,41,13.90
2009,08,24,08,42,13.90
2009,08,24,08,43,13.80
2009,08,24,08,44,13.90
2009,08,24,08,45,13.90
2009,08,24,08,46,14.00
2009,08,24,08,47,14.00
2009,08,24,08,48,14.00
2009,08,24,08,49,14.00
2009,08,24,08,50,14.10
2009,08,24,08,51,14.10
2009,08,24,08,52,14.10
2009,08,24,08,53,14.00
2009,08,24,08,54,13.90
2009,08,24,08,55,13.80
2009,08,24,08,56,13.80
2009,08,24,08,57,13.80
2009,08,24,08,58,13.90
2009,08,24,08,59,14.00
2009,08,24,09,00,14.00
2009,08,24,09,01,14.10
2009,08,24,09,02,14.20
2009,08,24,09,03,14.20
2009,08,24,09,04,14.20
2009,08,24,09,05,14.20
2009,08,24,09,06,14.20
2009,08,24,09,07,14.40
2009,08,24,09,08,14.40
2009,08,24,09,09,14.50
2009,08,24,09,10,14.60
2009,08,24,09,11,14.60
2009,08,24,09,12,14.70
2009,08,24,09,13,14.70
2009,08,24,09,14,14.80
2009,08,24,09,15,14.80
2009,08,24,09,16,14.90
2009,08,24,09,17,14.90
2009,08,24,09,18,14.90
2009,08,24,09,19,14.90
2009,08,24,09,20,14.90
2009,08,24,09,21,14.90
2009,08,24,09,22,15.00
2009,08,24,09,23,15.00
2009,08,24,09,24,15.00
2009,08,24,09,25,15.00
2009,08,24,09,26,15.00
2009,08,24,09,27,15.00
2009,08,24,09,28,15.10
2009,08,24,09,29,15.10
2009,08,24,09,30,15.00
2009,08,24,09,31,15.00
2009,08,24,09,32,15.00
2009,08,24,09,33,14.90
2009,08,24,09,34,14.90
2009,08,24,09,35,14.90
2009,08,24,09,36,15.00
2009,08,24,09,37,15.00
2009,08,24,09,38,14.90
2009,08,24,09,39,14.90
2009,08,24,09,40,14.90
2009,08,24,09,41,15.00
2009,08,24,09,42,15.00
2009,08,24,09,43,15.00
2009,08,24,09,44,15.00
2009,08,24,09,45,14.90
2009,08,24,09,46,14.90
2009,08,24,09,47,15.00
2009,08,24,09,48,15.00
2009,08,24,09,49,15.00
2009,08,24,09,50,15.00
2009,08,24,09,51,15.10
2009,08,24,09,52,15.10
2009,08,24,09,53,15.10
2009,08,24,09,54,15.00
2009,08,24,09,55,15.00
2009,08,24,09,56,15.00
2009,08,24,09,57,14.90
2009,08,24,09,58,14.90
2009,08,24,09,59,15.00
2009,08,24,10,00,15.00
2009,08,24,10,01,15.10
2009,08,24,10,02,15.10
2009,08,24,10,03,15.00
2009,08,24,10,04,14.90
2009,08,24,10,05,14.90
2009,08,24,10,06,14.80
2009,08,24,10,07,14.80
2009,08,24,10,08,14.80
2009,08,24,10,09,14.80
2009,08,24,10,10,14.90
2009,08,24,10,11,14.90
2009,08,24,10,12,14.80
2009,08,24,10,13,14.80
2009,08,24,10,14,14.90
2009,08,24,10,15,14.90
2009,08,24,10,16,15.00
2009,08,24,10,17,15.00
2009,08,24,10,18,15.00
2009,08,24,10,19,15.10
2009,08,24,10,20,15.20
2009,08,24,10,21,15.30
2009,08,24,10,22,15.30
2009,08,24,10,23,15.30
2009,08,24,10,24,15.30
2009,08,24,10,25,15.30
2009,08,24,10,26,15.30
2009,08,24,10,27,15.30
2009,08,24,10,28,15.40
2009,08,24,10,29,15.40
2009,08,24,10,30,15.50
2009,08,24,10,31,15.50
2009,08,24,10,32,15.50
2009,08,24,10,33,15.50
2009,08,24,10,34,15.60
2009,08,24,10,35,15.60
2009,08,24,10,36,15.70
2009,08,24,10,37,15.70
2009,08,24,10,38,15.80
2009,08,24,10,39,15.70
2009,08,24,10,40,15.50
2009,08,24,10,41,15.50
2009,08,24,10,42,15.40
2009,08,24,10,43,15.10
2009,08,24,10,44,15.10
2009,08,24,10,45,15.00
2009,08,24,10,46,14.80
2009,08,24,10,47,14.70
2009,08,24,10,48,14.70
2009,08,24,10,49,14.60
2009,08,24,10,50,14.70
2009,08,24,10,51,14.70
2009,08,24,10,52,14.70
2009,08,24,10,53,14.70
2009,08,24,10,54,14.70
2009,08,24,10,55,14.70
2009,08,24,10,56,14.80
2009,08,24,10,57,14.90
2009,08,24,10,58,14.90
2009,08,24,10,59,14.80
2009,08,24,11,00,14.90
2009,08,24,11,01,15.00
2009,08,24,11,02,15.00
2009,08,24,11,03,15.10
2009,08,24,11,04,15.10
2009,08,24,11,05,15.00
2009,08,24,11,06,14.90
2009,08,24,11,07,14.80
2009,08,24,11,08,14.80
2009,08,24,11,09,14.70
2009,08,24,11,10,14.60
2009,08,24,11,11,14.50
2009,08,24,11,12,14.40
2009,08,24,11,13,14.40
2009,08,24,11,14,14.30
2009,08,24,11,15,14.30
2009,08,24,11,16,14.30
2009,08,24,11,17,14.20
2009,08,24,11,18,14.20
2009,08,24,11,19,14.20
2009,08,24,11,20,14.20
2009,08,24,11,21,14.20
2009,08,24,11,22,14.20
2009,08,24,11,23,14.20
2009,08,24,11,24,14.20
2009,08,24,11,25,14.20
2009,08,24,11,26,14.20
2009,08,24,11,27,14.10
2009,08,24,11,28,14.10
2009,08,24,11,29,14.20
2009,08,24,11,30,14.30
2009,08,24,11,31,14.50
2009,08,24,11,32,14.60
2009,08,24,11,33,14.60
2009,08,24,11,34,14.50
2009,08,24,11,35,14.30
2009,08,24,11,36,14.20
2009,08,24,11,37,14.40
2009,08,24,11,38,14.50
2009,08,24,11,39,14.60
2009,08,24,11,40,14.40
2009,08,24,11,41,14.30
2009,08,24,11,42,14.30
2009,08,24,11,43,14.40
2009,08,24,11,44,14.40
2009,08,24,11,45,14.30
2009,08,24,11,46,14.30
2009,08,24,11,47,14.40
2009,08,24,11,48,14.50
2009,08,24,11,49,14.50
2009,08,24,11,50,14.50
2009,08,24,11,51,14.50
2009,08,24,11,52,14.40
2009,08,24,11,53,14.50
2009,08,24,11,54,14.60
2009,08,24,11,55,14.60
2009,08,24,11,56,14.60
2009,08,24,11,57,14.60
2009,08,24,11,58,14.60
2009,08,24,11,59,14.50
2009,08,24,12,00,14.40
2009,08,24,12,01,14.30
2009,08,24,12,02,14.30
2009,08,24,12,03,14.20
2009,08,24,12,04,14.10
2009,08,24,12,05,14.00
2009,08,24,12,06,14.10
2009,08,24,12,07,14.30
2009,08,24,12,08,14.40
2009,08,24,12,09,14.40
2009,08,24,12,10,14.20
2009,08,24,12,11,14.10
2009,08,24,12,12,14.10
2009,08,24,12,13,14.10
2009,08,24,12,14,14.20
2009,08,24,12,15,14.20
2009,08,24,12,16,14.20
2009,08,24,12,17,14.20
2009,08,24,12,18,14.00
2009,08,24,12,19,13.90
2009,08,24,12,20,13.90
2009,08,24,12,21,14.00
2009,08,24,12,22,14.00
2009,08,24,12,23,14.00
2009,08,24,12,24,14.00
2009,08,24,12,25,13.80
2009,08,24,12,26,13.60
2009,08,24,12,27,13.50
2009,08,24,12,28,13.50
2009,08,24,12,29,13.40
2009,08,24,12,30,13.50
2009,08,24,12,31,13.60
2009,08,24,12,32,13.70
2009,08,24,12,33,13.70
2009,08,24,12,34,13.70
2009,08,24,12,35,13.70
2009,08,24,12,36,13.70
2009,08,24,12,37,13.70
2009,08,24,12,38,13.50
2009,08,24,12,39,13.30
2009,08,24,12,40,13.10
2009,08,24,12,41,12.90
2009,08,24,12,42,12.90
2009,08,24,12,43,12.90
2009,08,24,12,44,12.70
2009,08,24,12,45,12.70
2009,08,24,12,46,12.70
2009,08,24,12,47,12.70
2009,08,24,12,48,12.70
2009,08,24,12,49,12.80
2009,08,24,12,50,12.80
2009,08,24,12,51,12.60
2009,08,24,12,52,12.50
2009,08,24,12,53,12.50
2009,08,24,12,54,12.50
2009,08,24,12,55,12.60
2009,08,24,12,56,12.60
2009,08,24,12,57,12.50
2009,08,24,12,58,12.60
2009,08,24,12,59,12.70
2009,08,24,13,00,12.70
2009,08,24,13,01,12.60
2009,08,24,13,02,12.50
2009,08,24,13,03,12.40
2009,08,24,13,04,12.30
2009,08,24,13,05,12.30
2009,08,24,13,06,12.30
2009,08,24,13,07,12.40
2009,08,24,13,08,12.50
2009,08,24,13,09,12.50
2009,08,24,13,10,12.50
2009,08,24,13,11,12.50
2009,08,24,13,12,12.70
2009,08,24,13,13,12.90
2009,08,24,13,14,13.00
2009,08,24,13,15,13.00
2009,08,24,13,16,13.00
2009,08,24,13,17,13.00
2009,08,24,13,18,13.10
2009,08,24,13,19,13.10
2009,08,24,13,20,13.20
2009,08,24,13,21,13.30
2009,08,24,13,22,13.30
2009,08,24,13,23,13.30
2009,08,24,13,24,13.30
2009,08,24,13,25,13.40
2009,08,24,13,26,13.40
2009,08,24,13,27,13.50
2009,08,24,13,28,13.50
2009,08,24,13,29,13.30
2009,08,24,13,30,13.30
2009,08,24,13,31,13.30
2009,08,24,13,32,13.30
2009,08,24,13,33,13.20
2009,08,24,13,34,13.20
2009,08,24,13,35,13.10
2009,08,24,13,36,13.20
2009,08,24,13,37,13.20
2009,08,24,13,38,13.10
2009,08,24,13,39,13.20
2009,08,24,13,40,13.20
2009,08,24,13,41,13.20
2009,08,24,13,42,13.40
2009,08,24,13,43,13.50
2009,08,24,13,44,13.60
2009,08,24,13,45,13.50
2009,08,24,13,46,13.60
2009,08,24,13,47,13.60
2009,08,24,13,48,13.60
2009,08,24,13,49,13.60
2009,08,24,13,50,13.70
2009,08,24,13,51,13.70
2009,08,24,13,52,13.70
2009,08,24,13,53,13.70
2009,08,24,13,54,13.70
2009,08,24,13,55,13.60
2009,08,24,13,56,13.70
2009,08,24,13,57,13.70
2009,08,24,13,58,13.70
2009,08,24,13,59,13.70
2009,08,24,14,00,13.60
2009,08,24,14,01,13.60
2009,08,24,14,02,13.60
2009,08,24,14,03,13.70
2009,08,24,14,04,13.90
2009,08,24,14,05,14.00
2009,08,24,14,06,14.00
2009,08,24,14,07,14.10
2009,08,24,14,08,14.20
2009,08,24,14,09,14.20
2009,08,24,14,10,14.20
2009,08,24,14,11,14.20
2009,08,24,14,12,14.20
2009,08,24,14,13,14.30
2009,08,24,14,14,14.40
2009,08,24,14,15,14.40
2009,08,24,14,16,14.40
2009,08,24,14,17,14.40
2009,08,24,14,18,14.40
2009,08,24,14,19,14.40
2009,08,24,14,20,14.40
2009,08,24,14,21,14.50
2009,08,24,14,22,14.60
2009,08,24,14,23,14.70
2009,08,24,14,24,14.80
2009,08,24,14,25,14.90
2009,08,24,14,26,15.00
2009,08,24,14,27,15.10
2009,08,24,14,28,15.30
2009,08,24,14,29,15.30
2009,08,24,14,30,15.30
2009,08,24,14,31,15.30
2009,08,24,14,32,15.40
2009,08,24,14,33,15.40
2009,08,24,14,34,15.40
2009,08,24,14,35,15.40
2009,08,24,14,36,15.50
2009,08,24,14,37,15.50
2009,08,24,14,38,15.60
2009,08,24,14,39,15.80
2009,08,24,14,40,16.00
2009,08,24,14,41,16.10
2009,08,24,14,42,15.90
2009,08,24,14,43,15.90
2009,08,24,14,44,15.70
2009,08,24,14,45,15.60
2009,08,24,14,46,15.50
2009,08,24,14,47,15.60
2009,08,24,14,48,15.60
2009,08,24,14,49,15.70
2009,08,24,14,50,15.70
2009,08,24,14,51,15.60
2009,08,24,14,52,15.40
2009,08,24,14,53,15.30
2009,08,24,14,54,15.10
2009,08,24,14,55,15.10
2009,08,24,14,56,15.20
2009,08,24,14,57,15.30
2009,08,24,14,58,15.30
2009,08,24,14,59,15.40
2009,08,24,15,00,15.40
2009,08,24,15,01,15.40
2009,08,24,15,02,15.50
2009,08,24,15,03,15.50
2009,08,24,15,04,15.50
2009,08,24,15,05,15.50
2009,08,24,15,06,15.50
2009,08,24,15,07,15.60
2009,08,24,15,08,15.70
2009,08,24,15,09,15.80
2009,08,24,15,10,15.80
2009,08,24,15,11,16.00
2009,08,24,15,12,16.10
2009,08,24,15,13,16.20
2009,08,24,15,14,16.30
2009,08,24,15,15,16.40
2009,08,24,15,16,16.30
2009,08,24,15,17,16.20
2009,08,24,15,18,16.10
2009,08,24,15,19,16.10
2009,08,24,15,20,16.10
2009,08,24,15,21,16.20
2009,08,24,15,22,16.20
2009,08,24,15,23,16.20
2009,08,24,15,24,16.10
2009,08,24,15,25,16.20
2009,08,24,15,26,16.30
2009,08,24,15,27,16.30
2009,08,24,15,28,16.20
2009,08,24,15,29,16.20
2009,08,24,15,30,16.30
2009,08,24,15,31,16.50
2009,08,24,15,32,16.60
2009,08,24,15,33,16.60
2009,08,24,15,34,16.60
2009,08,24,15,35,16.50
2009,08,24,15,36,16.40
2009,08,24,15,37,16.40
2009,08,24,15,38,16.40
2009,08,24,15,39,16.50
2009,08,24,15,40,16.70
2009,08,24,15,41,16.70
2009,08,24,15,42,16.70
2009,08,24,15,43,16.60
2009,08,24,15,44,16.40
2009,08,24,15,45,16.20
2009,08,24,15,46,16.10
2009,08,24,15,47,16.00
2009,08,24,15,48,15.90
2009,08,24,15,49,15.80
2009,08,24,15,50,15.80
2009,08,24,15,51,15.80
2009,08,24,15,52,15.70
2009,08,24,15,53,15.60
2009,08,24,15,54,15.60
2009,08,24,15,55,15.40
2009,08,24,15,56,15.40
2009,08,24,15,57,15.30
2009,08,24,15,58,15.30
2009,08,24,15,59,15.20
2009,08,24,16,00,15.10
2009,08,24,16,01,15.10
2009,08,24,16,02,15.00
2009,08,24,16,03,14.90
2009,08,24,16,04,14.80
2009,08,24,16,05,14.80
2009,08,24,16,06,15.00
2009,08,24,16,07,15.10
2009,08,24,16,08,15.20
2009,08,24,16,09,15.30
2009,08,24,16,10,15.30
2009,08,24,16,11,15.30
2009,08,24,16,12,15.40
2009,08,24,16,13,15.40
2009,08,24,16,14,15.40
2009,08,24,16,15,15.30
2009,08,24,16,16,15.30
2009,08,24,16,17,15.40
2009,08,24,16,18,15.40
2009,08,24,16,19,15.30
2009,08,24,16,20,15.20
2009,08,24,16,21,15.10
2009,08,24,16,22,15.20
2009,08,24,16,23,15.30
2009,08,24,16,24,15.30
2009,08,24,16,25,15.50
2009,08,24,16,26,15.60
2009,08,24,16,27,15.70
2009,08,24,16,28,15.70
2009,08,24,16,29,15.70
2009,08,24,16,30,15.60
2009,08,24,16,31,15.60
2009,08,24,16,32,15.50
2009,08,24,16,33,15.40
2009,08,24,16,34,15.40
2009,08,24,16,35,15.40
2009,08,24,16,36,15.40
2009,08,24,16,37,15.50
2009,08,24,16,38,15.50
2009,08,24,16,39,15.60
2009,08,24,16,40,15.60
2009,08,24,16,41,15.70
2009,08,24,16,42,15.80
2009,08,24,16,43,16.00
2009,08,24,16,44,16.20
2009,08,24,16,45,16.30
2009,08,24,16,46,16.30
2009,08,24,16,47,16.30
2009,08,24,16,48,16.40
2009,08,24,16,49,16.40
2009,08,24,16,50,16.40
2009,08,24,16,51,16.30
2009,08,24,16,52,16.30
2009,08,24,16,53,16.20
2009,08,24,16,54,16.20
2009,08,24,16,55,16.30
2009,08,24,16,56,16.30
2009,08,24,16,57,16.40
2009,08,24,16,58,16.40
2009,08,24,16,59,16.40
2009,08,24,17,00,16.40
2009,08,24,17,01,16.40
2009,08,24,17,02,16.40
2009,08,24,17,03,16.40
2009,08,24,17,04,16.40
2009,08,24,17,05,16.30
2009,08,24,17,06,16.30
2009,08,24,17,07,16.20
2009,08,24,17,08,16.10
2009,08,24,17,09,16.10
2009,08,24,17,10,16.20
2009,08,24,17,11,16.20
2009,08,24,17,12,16.30
2009,08,24,17,13,16.40
2009,08,24,17,14,16.50
2009,08,24,17,15,16.60
2009,08,24,17,16,16.70
2009,08,24,17,17,16.80
2009,08,24,17,18,16.80
2009,08,24,17,19,16.90